sat.trackr.live / text

‹ back to catalog

POLYTECH UNIVERSE-5

NORAD 61745 · 2024-199L

PAYLOAD ACTIVE UNKNOWN

§ Identity

Operator
Country
CIS
Launch date
2024-11-04
Launch site
VOSTO
Launch vehicle
Mass (kg)
RCS (m²)

External: N2YO · Heavens-Above · Gunter

§ Orbital elements

Epoch: 2026-09-22T22:32:05.743104Z

Period
91.45 min
Inclination
97.2744°
Eccentricity
0.0001598
Mean motion
15.74636157 rev/d
Perigee alt
344.6 km
Apogee alt
346.7 km
Semi-major
6,723.8 km
B*
6.0996e-4
RAAN
147.3162°
Arg perigee
194.1410°
Mean anomaly
165.9811°
Rev number
15,299

§ Raw data

POLYTECH UNIVERSE-51 61745U 24199L   26265.93895536  .00089642  00000+0  60996-3 0  99982 61745  97.2744 147.3162 0001598 194.1410 165.9811 15.74636157152997

JSON: /api/v1/satellites/61745 · /tle

For live sub-satellite position, see the globe view (requires WebGL).

§ Visibility from observer

Set your observer location to see the next 7 days of passes ≥ 10°. The values pass through the URL so the page stays shareable.

No JS? Fill the form by hand. The geolocation button needs JavaScript.